Roswell, NM

4:36 AM MST on November 19, 2017 (GMT -0700)
Roswell Industrial

Weather History for KROW - October, 2011

Change the Weather History Date:

Saturday, October 29, 2011

  Actual Average Record
Temperature  
Mean Temperature 50 °F 56 °F  
Max Temperature 67 °F 71 °F 91 °F (2016)
Min Temperature 32 °F 42 °F 20 °F (1917)
Degree Days  
Heating Degree Days 15 9  
Month to date heating degree days 101 140  
Since 1 July heating degree days 101 156  
Cooling Degree Days 0 0  
Month to date cooling degree days 78 35  
Year to date cooling degree days 2475 1786  
Moisture  
Dew Point 40 °F    
Average Humidity 71    
Maximum Humidity 100    
Minimum Humidity 42    
Precipitation  
Precipitation 0.00 in 0.03 in 0.93 in (1928)
Month to date precipitation 0.72 1.16  
Year to date precipitation 3.76 11.62  
Sea Level Pressure  
Sea Level Pressure 30.10 in    
Wind  
Wind Speed 6 mph (South)    
Max Wind Speed 15 mph    
Max Gust Speed 20 mph    
Visibility 10 miles    
Events      
T = Trace of Precipitation, MM = Missing Value Source: NWS Daily Summary

Daily Weather History Graph

Daily Weather History Graph

Search for Another Location

Airport or City:

Trip Planner

Search our weather history database for the weather conditions in past years. The results will help you decide how hot, cold, wet, or windy it might be!

Date:

Astronomy

Oct. 29, 2011 Rise Set
Actual Time 7:13 AM MDT 6:09 PM MDT
Civil Twilight 6:48 AM MDT 6:34 PM MDT
Nautical Twilight 6:19 AM MDT 7:04 PM MDT
Astronomical Twilight 5:50 AM MDT 7:32 PM MDT
Moon 10:28 AM MDT (10/29) 8:45 PM MDT (10/29)
Length of Visible Light 11h 46m
Length of Day
10h 55m
Waxing Crescent, 12% of the Moon is Illuminated
Oct 29
Waxing Crescent
Nov 2
First Quarter
Nov 10
Full
Nov 18
Last Quarter
Nov 24
New

Hourly Weather History & Observations

Time (MDT) Temp. Windchill Dew Point Humidity Pressure Visibility Wind Dir Wind Speed Gust Speed Precip Events Conditions
12:51 AM 37.9 °F 33.5 °F 36.0 °F 93% 30.26 in 10.0 mi SSW 5.8 mph - N/A   Clear
1:51 AM 39.0 °F 34.8 °F 37.0 °F 93% 30.25 in 10.0 mi South 5.8 mph - N/A   Clear
2:51 AM 37.0 °F - 35.1 °F 93% 30.23 in 10.0 mi Calm Calm - N/A   Clear
3:51 AM 36.0 °F - 35.1 °F 97% 30.21 in 10.0 mi Calm Calm - N/A   Clear
4:51 AM 36.0 °F 32.1 °F 34.0 °F 93% 30.20 in 10.0 mi SSE 4.6 mph - N/A   Clear
5:19 AM 35.6 °F 31.7 °F 33.8 °F 93% 30.24 in 10.0 mi SSE 4.6 mph - N/A   Scattered Clouds
5:27 AM 35.6 °F 32.8 °F 33.8 °F 93% 30.24 in 10.0 mi SE 3.5 mph - N/A   Mostly Cloudy
5:51 AM 34.0 °F - 34.0 °F 100% 30.20 in 10.0 mi Calm Calm - N/A   Overcast
6:18 AM 32.0 °F - 32.0 °F 100% 30.23 in 10.0 mi Calm Calm - N/A   Scattered Clouds
6:51 AM 33.1 °F 30.0 °F 32.0 °F 96% 30.20 in 10.0 mi South 3.5 mph - N/A   Clear
7:51 AM 35.1 °F - 34.0 °F 96% 30.20 in 10.0 mi Calm Calm - N/A   Clear
8:51 AM 41.0 °F 38.0 °F 39.0 °F 93% 30.20 in 10.0 mi South 4.6 mph - N/A   Clear
9:43 AM 46.4 °F 42.4 °F 42.8 °F 87% 30.22 in 10.0 mi South 8.1 mph - N/A   Partly Cloudy
9:51 AM 46.0 °F 41.4 °F 42.1 °F 86% 30.17 in 10.0 mi South 9.2 mph - N/A   Partly Cloudy
10:51 AM 50.0 °F - 43.0 °F 77% 30.15 in 10.0 mi SE 8.1 mph - N/A   Clear
11:51 AM 55.9 °F - 43.0 °F 62% 30.12 in 10.0 mi SSE 5.8 mph 16.1 mph N/A   Clear
12:51 PM 59.0 °F - 43.0 °F 55% 30.05 in 10.0 mi South 9.2 mph - N/A   Clear
1:51 PM 62.1 °F - 45.0 °F 53% 29.99 in 10.0 mi SSE 10.4 mph - N/A   Clear
2:51 PM 64.0 °F - 44.1 °F 48% 29.95 in 10.0 mi South 11.5 mph - N/A   Clear
3:51 PM 66.9 °F - 44.1 °F 44% 29.92 in 10.0 mi South 12.7 mph - N/A   Clear
4:51 PM 66.9 °F - 43.0 °F 42% 29.91 in 10.0 mi South 13.8 mph - N/A   Clear
5:51 PM 63.0 °F - 44.1 °F 50% 29.91 in 10.0 mi SE 6.9 mph - N/A   Clear
6:51 PM 55.0 °F - 44.1 °F 67% 29.95 in 10.0 mi SSW 8.1 mph - N/A   Clear
7:51 PM 53.1 °F - 45.0 °F 74% 29.95 in 10.0 mi Calm Calm - N/A   Clear
8:51 PM 50.0 °F - 44.1 °F 80% 29.95 in 10.0 mi SE 4.6 mph - N/A   Clear
9:51 PM 48.9 °F - 43.0 °F 80% 29.95 in 10.0 mi SW 5.8 mph - N/A   Clear
10:51 PM 46.9 °F - 42.1 °F 83% 29.94 in 10.0 mi South 3.5 mph - N/A   Clear
11:51 PM 48.0 °F - 41.0 °F 77% 29.93 in 10.0 mi SW 5.8 mph - N/A   Clear